Time,TemperatureF,DewpointF,PressureIn,WindDirection,WindDirectionDegrees,WindSpeedMPH,WindSpeedGustMPH,Humidity,HourlyPrecipIn,Conditions,Clouds,dailyrainin,SolarRadiationWatts/m^2,SoftwareType,DateUTC
2013-09-09 00:01:00,77.0,72.1,29.71,South,171,3.0,4.0,85,0.00,,,0.00,0,Wunderground v.1.15,2013-09-09 05:01:00,
2013-09-09 00:06:00,76.9,72.0,29.71,SSE,161,4.0,5.0,85,0.00,,,0.00,0,Wunderground v.1.15,2013-09-09 05:06:00,
2013-09-09 00:12:00,76.8,71.9,29.71,SSE,167,4.0,5.0,85,0.00,,,0.00,0,Wunderground v.1.15,2013-09-09 05:12:00,
2013-09-09 00:17:00,76.7,72.2,29.71,SSE,165,4.0,5.0,86,0.00,,,0.00,0,Wunderground v.1.15,2013-09-09 05:17:00,
2013-09-09 00:22:00,76.3,72.1,29.71,SSE,157,3.0,4.0,87,0.00,,,0.00,0,Wunderground v.1.15,2013-09-09 05:22:00,
2013-09-09 00:27:00,75.8,72.0,29.71,SSE,168,3.0,5.0,88,0.00,,,0.00,0,Wunderground v.1.15,2013-09-09 05:27:00,
2013-09-09 00:33:00,75.7,71.9,29.71,South,169,3.0,3.0,88,0.00,,,0.00,0,Wunderground v.1.15,2013-09-09 05:33:00,
2013-09-09 00:39:00,75.5,71.7,29.72,South,175,2.0,4.0,88,0.00,,,0.00,0,Wunderground v.1.15,2013-09-09 05:39:00,
2013-09-09 00:45:00,75.4,71.6,29.71,South,171,3.0,4.0,88,0.00,,,0.00,0,Wunderground v.1.15,2013-09-09 05:45:00,
2013-09-09 00:51:00,75.3,71.8,29.71,South,186,3.0,5.0,89,0.00,,,0.00,0,Wunderground v.1.15,2013-09-09 05:51:00,
2013-09-09 00:57:00,75.8,71.7,29.71,SSW,202,4.0,5.0,87,0.00,,,0.00,0,Wunderground v.1.15,2013-09-09 05:57:00,
2013-09-09 01:02:00,76.8,71.6,29.71,SSE,163,4.0,6.0,84,0.00,,,0.00,0,Wunderground v.1.15,2013-09-09 06:02:00,
2013-09-09 01:07:00,77.5,71.6,29.71,SSE,163,4.0,6.0,82,0.00,,,0.00,0,Wunderground v.1.15,2013-09-09 06:07:00,
2013-09-09 01:13:00,77.6,71.3,29.71,SSE,167,4.0,5.0,81,0.00,,,0.00,0,Wunderground v.1.15,2013-09-09 06:13:00,
2013-09-09 01:19:00,77.4,71.1,29.71,South,169,4.0,6.0,81,0.00,,,0.00,0,Wunderground v.1.15,2013-09-09 06:19:00,
2013-09-09 01:24:00,77.2,70.5,29.71,SSE,153,4.0,5.0,80,0.00,,,0.00,0,Wunderground v.1.15,2013-09-09 06:24:00,
2013-09-09 01:29:00,77.1,70.5,29.71,South,169,5.0,6.0,80,0.00,,,0.00,0,Wunderground v.1.15,2013-09-09 06:29:00,
2013-09-09 01:34:00,76.9,70.3,29.71,South,190,4.0,5.0,80,0.00,,,0.00,0,Wunderground v.1.15,2013-09-09 06:34:00,
2013-09-09 01:40:00,76.6,70.0,29.71,South,169,4.0,6.0,80,0.00,,,0.00,0,Wunderground v.1.15,2013-09-09 06:40:00,
2013-09-09 01:46:00,76.5,69.9,29.71,South,188,5.0,6.0,80,0.00,,,0.00,0,Wunderground v.1.15,2013-09-09 06:46:00,
2013-09-09 01:52:00,76.3,69.7,29.71,South,190,5.0,10.0,80,0.00,,,0.00,0,Wunderground v.1.15,2013-09-09 06:52:00,
2013-09-09 01:58:00,76.0,69.4,29.71,South,180,5.0,10.0,80,0.00,,,0.00,0,Wunderground v.1.15,2013-09-09 06:58:00,
2013-09-09 02:04:00,76.0,69.0,29.71,South,176,5.0,6.0,79,0.00,,,0.00,0,Wunderground v.1.15,2013-09-09 07:04:00,
2013-09-09 02:09:00,75.9,68.9,29.71,South,181,5.0,7.0,79,0.00,,,0.00,0,Wunderground v.1.15,2013-09-09 07:09:00,
2013-09-09 02:14:00,75.6,68.6,29.71,South,185,4.0,6.0,79,0.00,,,0.00,0,Wunderground v.1.15,2013-09-09 07:14:00,
2013-09-09 02:19:00,75.5,68.5,29.71,South,175,4.0,6.0,79,0.00,,,0.00,0,Wunderground v.1.15,2013-09-09 07:19:00,
2013-09-09 02:25:00,75.4,68.4,29.71,South,188,4.0,6.0,79,0.00,,,0.00,0,Wunderground v.1.15,2013-09-09 07:25:00,
2013-09-09 02:31:00,75.3,68.3,29.71,South,190,5.0,7.0,79,0.00,,,0.00,0,Wunderground v.1.15,2013-09-09 07:31:00,
2013-09-09 02:37:00,75.6,67.9,29.70,SSW,206,5.0,7.0,77,0.00,,,0.00,0,Wunderground v.1.15,2013-09-09 07:37:00,
2013-09-09 02:42:00,75.9,67.8,29.70,SSW,195,5.0,5.0,76,0.00,,,0.00,0,Wunderground v.1.15,2013-09-09 07:42:00,
2013-09-09 02:47:00,75.8,67.3,29.70,South,174,5.0,5.0,75,0.00,,,0.00,0,Wunderground v.1.15,2013-09-09 07:47:00,
2013-09-09 02:52:00,75.8,67.3,29.70,SSW,198,4.0,5.0,75,0.00,,,0.00,0,Wunderground v.1.15,2013-09-09 07:52:00,
2013-09-09 02:58:00,75.8,66.9,29.70,South,189,5.0,7.0,74,0.00,,,0.00,0,Wunderground v.1.15,2013-09-09 07:58:00,
2013-09-09 03:04:00,75.8,66.9,29.70,SW,215,5.0,5.0,74,0.00,,,0.00,0,Wunderground v.1.15,2013-09-09 08:04:00,
2013-09-09 03:09:00,75.9,66.6,29.70,South,183,5.0,8.0,73,0.00,,,0.00,0,Wunderground v.1.15,2013-09-09 08:09:00,
2013-09-09 03:14:00,76.1,66.8,29.70,South,184,5.0,6.0,73,0.00,,,0.00,0,Wunderground v.1.15,2013-09-09 08:14:00,
2013-09-09 03:20:00,75.9,66.6,29.70,SSW,194,5.0,6.0,73,0.00,,,0.00,0,Wunderground v.1.15,2013-09-09 08:20:00,
2013-09-09 03:26:00,75.7,66.4,29.70,South,178,5.0,7.0,73,0.00,,,0.00,0,Wunderground v.1.15,2013-09-09 08:26:00,
2013-09-09 03:32:00,75.6,66.3,29.71,SSE,167,5.0,8.0,73,0.00,,,0.00,0,Wunderground v.1.15,2013-09-09 08:32:00,
2013-09-09 03:37:00,75.5,66.2,29.70,SSW,198,5.0,8.0,73,0.00,,,0.00,0,Wunderground v.1.15,2013-09-09 08:37:00,
2013-09-09 03:42:00,75.5,66.2,29.71,South,169,6.0,6.0,73,0.00,,,0.00,0,Wunderground v.1.15,2013-09-09 08:42:00,
2013-09-09 03:47:00,75.7,66.0,29.70,SW,214,6.0,8.0,72,0.00,,,0.00,0,Wunderground v.1.15,2013-09-09 08:47:00,
2013-09-09 03:53:00,75.7,66.0,29.71,South,183,5.0,5.0,72,0.00,,,0.00,0,Wunderground v.1.15,2013-09-09 08:53:00,
2013-09-09 03:59:00,75.6,65.9,29.70,SSW,196,5.0,6.0,72,0.00,,,0.00,0,Wunderground v.1.15,2013-09-09 08:59:00,
2013-09-09 04:05:00,75.7,66.0,29.71,SW,224,5.0,6.0,72,0.00,,,0.00,0,Wunderground v.1.15,2013-09-09 09:05:00,
2013-09-09 04:11:00,76.0,65.9,29.71,SSW,194,5.0,9.0,71,0.00,,,0.00,0,Wunderground v.1.15,2013-09-09 09:11:00,
2013-09-09 04:17:00,76.8,65.4,29.71,South,185,6.0,9.0,68,0.00,,,0.00,0,Wunderground v.1.15,2013-09-09 09:17:00,
2013-09-09 04:23:00,77.5,65.7,29.71,SW,234,7.0,9.0,67,0.00,,,0.00,0,Wunderground v.1.15,2013-09-09 09:23:00,
2013-09-09 04:29:00,78.1,65.8,29.71,SSW,202,8.0,11.0,66,0.00,,,0.00,0,Wunderground v.1.15,2013-09-09 09:29:00,
2013-09-09 04:34:00,78.5,65.3,29.71,SW,228,9.0,12.0,64,0.00,,,0.00,0,Wunderground v.1.15,2013-09-09 09:34:00,
2013-09-09 04:39:00,78.7,65.0,29.71,SW,220,9.0,12.0,63,0.00,,,0.00,0,Wunderground v.1.15,2013-09-09 09:39:00,
2013-09-09 04:45:00,79.0,64.9,29.71,SW,232,8.0,11.0,62,0.00,,,0.00,0,Wunderground v.1.15,2013-09-09 09:45:00,
2013-09-09 04:50:00,79.0,64.9,29.71,SW,226,9.0,10.0,62,0.00,,,0.00,0,Wunderground v.1.15,2013-09-09 09:50:00,
2013-09-09 04:55:00,78.8,64.7,29.71,SW,218,9.0,13.0,62,0.00,,,0.00,0,Wunderground v.1.15,2013-09-09 09:55:00,
2013-09-09 05:00:00,78.7,64.6,29.71,SW,219,9.0,13.0,62,0.00,,,0.00,0,Wunderground v.1.15,2013-09-09 10:00:00,
2013-09-09 05:06:00,78.9,64.3,29.71,SW,217,9.0,13.0,61,0.00,,,0.00,0,Wunderground v.1.15,2013-09-09 10:06:00,
2013-09-09 05:12:00,78.7,64.1,29.72,WSW,240,10.0,14.0,61,0.00,,,0.00,0,Wunderground v.1.15,2013-09-09 10:12:00,
2013-09-09 05:17:00,78.7,64.1,29.72,SW,221,10.0,16.0,61,0.00,,,0.00,0,Wunderground v.1.15,2013-09-09 10:17:00,
2013-09-09 05:22:00,78.7,64.1,29.72,WSW,237,10.0,12.0,61,0.00,,,0.00,0,Wunderground v.1.15,2013-09-09 10:22:00,
2013-09-09 05:27:00,78.5,63.9,29.72,SSW,213,10.0,12.0,61,0.00,,,0.00,0,Wunderground v.1.15,2013-09-09 10:27:00,
2013-09-09 05:32:00,78.3,63.7,29.72,SW,215,9.0,9.0,61,0.00,,,0.00,0,Wunderground v.1.15,2013-09-09 10:32:00,
2013-09-09 05:37:00,78.2,63.6,29.72,SW,236,7.0,15.0,61,0.00,,,0.00,0,Wunderground v.1.15,2013-09-09 10:37:00,
2013-09-09 05:42:00,78.1,64.0,29.72,SW,228,8.0,13.0,62,0.00,,,0.00,0,Wunderground v.1.15,2013-09-09 10:42:00,
2013-09-09 05:47:00,78.0,63.9,29.72,SSW,210,9.0,15.0,62,0.00,,,0.00,0,Wunderground v.1.15,2013-09-09 10:47:00,
2013-09-09 05:52:00,77.8,63.7,29.72,SW,236,8.0,13.0,62,0.00,,,0.00,0,Wunderground v.1.15,2013-09-09 10:52:00,
2013-09-09 05:58:00,77.7,63.6,29.72,SW,225,9.0,13.0,62,0.00,,,0.00,0,Wunderground v.1.15,2013-09-09 10:58:00,
2013-09-09 06:04:00,77.4,63.4,29.72,SSW,194,9.0,11.0,62,0.00,,,0.00,0,Wunderground v.1.15,2013-09-09 11:04:00,
2013-09-09 06:09:00,77.4,63.4,29.72,SSW,204,8.0,14.0,62,0.00,,,0.00,0,Wunderground v.1.15,2013-09-09 11:09:00,
2013-09-09 06:14:00,77.2,63.6,29.72,WSW,238,9.0,13.0,63,0.00,,,0.00,0,Wunderground v.1.15,2013-09-09 11:14:00,
2013-09-09 06:19:00,77.2,63.2,29.72,WSW,247,9.0,15.0,62,0.00,,,0.00,0,Wunderground v.1.15,2013-09-09 11:19:00,
2013-09-09 06:25:00,77.1,63.5,29.72,SW,228,9.0,15.0,63,0.00,,,0.00,0,Wunderground v.1.15,2013-09-09 11:25:00,
2013-09-09 06:31:00,77.1,63.1,29.72,SSW,205,9.0,11.0,62,0.00,,,0.00,0,Wunderground v.1.15,2013-09-09 11:31:00,
2013-09-09 06:36:00,77.0,63.0,29.72,SSW,211,9.0,11.0,62,0.00,,,0.00,0,Wunderground v.1.15,2013-09-09 11:36:00,
2013-09-09 06:42:00,76.9,63.3,29.72,WSW,241,9.0,12.0,63,0.00,,,0.00,0,Wunderground v.1.15,2013-09-09 11:42:00,
2013-09-09 06:47:00,76.8,63.2,29.72,SSW,210,9.0,12.0,63,0.00,,,0.00,0,Wunderground v.1.15,2013-09-09 11:47:00,
2013-09-09 06:52:00,76.8,62.8,29.72,SW,223,9.0,16.0,62,0.00,,,0.00,0,Wunderground v.1.15,2013-09-09 11:52:00,
2013-09-09 06:57:00,76.7,63.2,29.72,SSW,213,9.0,17.0,63,0.00,,,0.00,0,Wunderground v.1.15,2013-09-09 11:57:00,
2013-09-09 07:03:00,76.6,63.1,29.72,SW,215,9.0,12.0,63,0.00,,,0.00,5,Wunderground v.1.15,2013-09-09 12:03:00,
2013-09-09 07:09:00,76.8,62.8,29.73,SSW,207,10.0,13.0,62,0.00,,,0.00,9,Wunderground v.1.15,2013-09-09 12:09:00,
2013-09-09 07:14:00,76.9,62.9,29.73,SW,228,9.0,11.0,62,0.00,,,0.00,12,Wunderground v.1.15,2013-09-09 12:14:00,
2013-09-09 07:19:00,76.9,62.9,29.73,SSW,198,9.0,12.0,62,0.00,,,0.00,16,Wunderground v.1.15,2013-09-09 12:19:00,
2013-09-09 07:24:00,76.7,62.7,29.73,SSW,206,9.0,10.0,62,0.00,,,0.00,19,Wunderground v.1.15,2013-09-09 12:24:00,
2013-09-09 07:29:00,76.8,62.8,29.74,SSW,213,9.0,15.0,62,0.00,,,0.00,23,Wunderground v.1.15,2013-09-09 12:29:00,
2013-09-09 07:35:00,76.8,62.8,29.73,SSW,200,9.0,10.0,62,0.00,,,0.00,26,Wunderground v.1.15,2013-09-09 12:35:00,
2013-09-09 07:41:00,76.7,63.2,29.73,SSW,200,8.0,8.0,63,0.00,,,0.00,30,Wunderground v.1.15,2013-09-09 12:41:00,
2013-09-09 07:47:00,76.7,62.7,29.73,SSW,198,8.0,10.0,62,0.00,,,0.00,54,Wunderground v.1.15,2013-09-09 12:47:00,
2013-09-09 07:53:00,76.6,63.1,29.73,South,177,7.0,9.0,63,0.00,,,0.00,76,Wunderground v.1.15,2013-09-09 12:53:00,
2013-09-09 07:59:00,76.7,63.2,29.74,SW,221,7.0,13.0,63,0.00,,,0.00,93,Wunderground v.1.15,2013-09-09 12:59:00,
2013-09-09 08:04:00,76.8,63.2,29.74,SW,221,8.0,11.0,63,0.00,,,0.00,114,Wunderground v.1.15,2013-09-09 13:04:00,
2013-09-09 08:09:00,76.9,63.3,29.74,SW,234,8.0,11.0,63,0.00,,,0.00,132,Wunderground v.1.15,2013-09-09 13:09:00,
2013-09-09 08:14:00,77.0,63.4,29.74,SSW,194,7.0,11.0,63,0.00,,,0.00,151,Wunderground v.1.15,2013-09-09 13:14:00,
2013-09-09 08:19:00,77.4,63.4,29.74,SW,227,7.0,11.0,62,0.00,,,0.00,172,Wunderground v.1.15,2013-09-09 13:19:00,
2013-09-09 08:25:00,77.5,63.5,29.74,SSW,196,7.0,11.0,62,0.00,,,0.00,190,Wunderground v.1.15,2013-09-09 13:25:00,
2013-09-09 08:30:00,77.8,63.7,29.74,SSW,195,7.0,9.0,62,0.00,,,0.00,209,Wunderground v.1.15,2013-09-09 13:30:00,
2013-09-09 08:35:00,78.0,63.5,29.74,SW,218,8.0,9.0,61,0.00,,,0.00,223,Wunderground v.1.15,2013-09-09 13:35:00,
2013-09-09 08:40:00,78.2,64.1,29.74,SSW,204,7.0,9.0,62,0.00,,,0.00,236,Wunderground v.1.15,2013-09-09 13:40:00,
2013-09-09 08:45:00,78.4,64.3,29.74,South,188,8.0,11.0,62,0.00,,,0.00,243,Wunderground v.1.15,2013-09-09 13:45:00,
2013-09-09 08:51:00,78.6,64.0,29.74,SSW,207,8.0,12.0,61,0.00,,,0.00,274,Wunderground v.1.15,2013-09-09 13:51:00,
2013-09-09 08:57:00,79.1,64.0,29.74,SSW,194,8.0,12.0,60,0.00,,,0.00,288,Wunderground v.1.15,2013-09-09 13:57:00,
2013-09-09 09:02:00,79.3,64.2,29.74,SW,236,9.0,10.0,60,0.00,,,0.00,308,Wunderground v.1.15,2013-09-09 14:02:00,
2013-09-09 09:07:00,79.6,64.0,29.74,SSW,199,10.0,17.0,59,0.00,,,0.00,322,Wunderground v.1.15,2013-09-09 14:07:00,
2013-09-09 09:12:00,80.0,64.9,29.74,South,180,9.0,14.0,60,0.00,,,0.00,338,Wunderground v.1.15,2013-09-09 14:12:00,
2013-09-09 09:18:00,80.4,64.8,29.74,SW,234,9.0,14.0,59,0.00,,,0.00,352,Wunderground v.1.15,2013-09-09 14:18:00,
2013-09-09 09:24:00,81.0,64.8,29.74,SW,215,9.0,17.0,58,0.00,,,0.00,371,Wunderground v.1.15,2013-09-09 14:24:00,
2013-09-09 09:30:00,81.4,65.2,29.74,SW,225,9.0,9.0,58,0.00,,,0.00,388,Wunderground v.1.15,2013-09-09 14:30:00,
2013-09-09 09:35:00,81.8,64.1,29.74,SW,231,9.0,11.0,55,0.00,,,0.00,401,Wunderground v.1.15,2013-09-09 14:35:00,
2013-09-09 09:41:00,82.2,64.4,29.74,SW,217,9.0,15.0,55,0.00,,,0.00,418,Wunderground v.1.15,2013-09-09 14:41:00,
2013-09-09 09:47:00,82.7,64.9,29.74,SW,227,9.0,18.0,55,0.00,,,0.00,436,Wunderground v.1.15,2013-09-09 14:47:00,
2013-09-09 09:52:00,83.0,64.6,29.74,SW,224,10.0,14.0,54,0.00,,,0.00,448,Wunderground v.1.15,2013-09-09 14:52:00,
2013-09-09 09:57:00,83.4,65.0,29.74,WSW,238,11.0,14.0,54,0.00,,,0.00,464,Wunderground v.1.15,2013-09-09 14:57:00,
2013-09-09 10:02:00,83.7,64.8,29.74,SW,222,11.0,12.0,53,0.00,,,0.00,476,Wunderground v.1.15,2013-09-09 15:02:00,
2013-09-09 10:07:00,84.1,65.7,29.74,SW,218,11.0,20.0,54,0.00,,,0.00,490,Wunderground v.1.15,2013-09-09 15:07:00,
2013-09-09 10:12:00,84.4,65.9,29.74,SW,223,10.0,15.0,54,0.00,,,0.00,503,Wunderground v.1.15,2013-09-09 15:12:00,
2013-09-09 10:18:00,84.7,65.1,29.74,SSW,202,11.0,15.0,52,0.00,,,0.00,517,Wunderground v.1.15,2013-09-09 15:18:00,
2013-09-09 10:23:00,84.8,64.7,29.74,SW,224,11.0,20.0,51,0.00,,,0.00,529,Wunderground v.1.15,2013-09-09 15:23:00,
2013-09-09 10:29:00,85.2,65.0,29.74,SW,224,12.0,20.0,51,0.00,,,0.00,547,Wunderground v.1.15,2013-09-09 15:29:00,
2013-09-09 10:35:00,85.5,65.3,29.74,SW,218,12.0,13.0,51,0.00,,,0.00,559,Wunderground v.1.15,2013-09-09 15:35:00,
2013-09-09 10:41:00,86.0,65.8,29.74,SW,232,11.0,11.0,51,0.00,,,0.00,573,Wunderground v.1.15,2013-09-09 15:41:00,
2013-09-09 10:47:00,86.5,65.7,29.73,SW,222,11.0,18.0,50,0.00,,,0.00,589,Wunderground v.1.15,2013-09-09 15:47:00,
2013-09-09 10:52:00,86.8,65.3,29.73,SW,214,11.0,11.0,49,0.00,,,0.00,599,Wunderground v.1.15,2013-09-09 15:52:00,
2013-09-09 10:57:00,87.0,64.9,29.73,West,281,12.0,15.0,48,0.00,,,0.00,612,Wunderground v.1.15,2013-09-09 15:57:00,
2013-09-09 11:02:00,87.4,65.9,29.73,SW,229,11.0,11.0,49,0.00,,,0.00,624,Wunderground v.1.15,2013-09-09 16:02:00,
2013-09-09 11:07:00,87.5,64.8,29.73,WSW,244,10.0,17.0,47,0.00,,,0.00,633,Wunderground v.1.15,2013-09-09 16:07:00,
2013-09-09 11:13:00,88.0,65.2,29.73,SW,216,12.0,13.0,47,0.00,,,0.00,647,Wunderground v.1.15,2013-09-09 16:13:00,
2013-09-09 11:18:00,88.3,65.5,29.73,SSW,205,12.0,15.0,47,0.00,,,0.00,652,Wunderground v.1.15,2013-09-09 16:18:00,
2013-09-09 11:23:00,88.8,65.4,29.73,SW,225,11.0,15.0,46,0.00,,,0.00,664,Wunderground v.1.15,2013-09-09 16:23:00,
2013-09-09 11:28:00,89.0,65.5,29.72,SW,219,11.0,16.0,46,0.00,,,0.00,671,Wunderground v.1.15,2013-09-09 16:28:00,
2013-09-09 11:33:00,89.4,65.9,29.72,SSW,204,12.0,12.0,46,0.00,,,0.00,680,Wunderground v.1.15,2013-09-09 16:33:00,
2013-09-09 11:38:00,90.1,66.5,29.73,SSW,202,10.0,16.0,46,0.00,,,0.00,689,Wunderground v.1.15,2013-09-09 16:38:00,
2013-09-09 11:43:00,90.3,64.8,29.73,WSW,244,9.0,15.0,43,0.00,,,0.00,694,Wunderground v.1.15,2013-09-09 16:43:00,
2013-09-09 11:48:00,90.5,66.3,29.73,SSW,209,10.0,15.0,45,0.00,,,0.00,703,Wunderground v.1.15,2013-09-09 16:48:00,
2013-09-09 11:54:00,90.8,65.9,29.72,WSW,240,10.0,12.0,44,0.00,,,0.00,712,Wunderground v.1.15,2013-09-09 16:54:00,
2013-09-09 12:00:00,90.9,66.0,29.72,SSW,205,11.0,11.0,44,0.00,,,0.00,717,Wunderground v.1.15,2013-09-09 17:00:00,
2013-09-09 12:06:00,91.2,64.9,29.72,SSW,212,11.0,17.0,42,0.00,,,0.00,728,Wunderground v.1.15,2013-09-09 17:06:00,
2013-09-09 12:12:00,91.3,65.7,29.72,WSW,246,12.0,17.0,43,0.00,,,0.00,733,Wunderground v.1.15,2013-09-09 17:12:00,
2013-09-09 12:17:00,91.5,65.8,29.72,WSW,237,12.0,17.0,43,0.00,,,0.00,740,Wunderground v.1.15,2013-09-09 17:17:00,
2013-09-09 12:22:00,91.8,65.4,29.72,SW,235,11.0,18.0,42,0.00,,,0.00,745,Wunderground v.1.15,2013-09-09 17:22:00,
2013-09-09 12:27:00,92.0,65.6,29.72,SSW,203,11.0,18.0,42,0.00,,,0.00,749,Wunderground v.1.15,2013-09-09 17:27:00,
2013-09-09 12:32:00,92.3,64.5,29.72,SSW,209,12.0,16.0,40,0.00,,,0.00,754,Wunderground v.1.15,2013-09-09 17:32:00,
2013-09-09 12:38:00,92.2,65.8,29.72,West,273,13.0,16.0,42,0.00,,,0.00,754,Wunderground v.1.15,2013-09-09 17:38:00,
2013-09-09 12:44:00,92.6,65.5,29.72,SW,225,11.0,19.0,41,0.00,,,0.00,756,Wunderground v.1.15,2013-09-09 17:44:00,
2013-09-09 12:50:00,92.9,65.7,29.71,SW,218,11.0,11.0,41,0.00,,,0.00,761,Wunderground v.1.15,2013-09-09 17:50:00,
2013-09-09 12:56:00,93.1,65.2,29.71,SSW,207,11.0,13.0,40,0.00,,,0.00,763,Wunderground v.1.15,2013-09-09 17:56:00,
2013-09-09 13:02:00,93.4,66.9,29.72,SSW,209,11.0,19.0,42,0.00,,,0.00,766,Wunderground v.1.15,2013-09-09 18:02:00,
2013-09-09 13:07:00,93.2,66.7,29.72,WSW,244,10.0,19.0,42,0.00,,,0.00,770,Wunderground v.1.15,2013-09-09 18:07:00,
2013-09-09 13:12:00,93.3,65.4,29.71,SW,223,11.0,21.0,40,0.00,,,0.00,770,Wunderground v.1.15,2013-09-09 18:12:00,
2013-09-09 13:17:00,93.2,65.3,29.71,SSW,194,13.0,21.0,40,0.00,,,0.00,770,Wunderground v.1.15,2013-09-09 18:17:00,
2013-09-09 13:22:00,93.4,65.5,29.71,South,190,14.0,14.0,40,0.00,,,0.00,772,Wunderground v.1.15,2013-09-09 18:22:00,
2013-09-09 13:27:00,93.9,65.2,29.71,SSW,196,12.0,14.0,39,0.00,,,0.00,768,Wunderground v.1.15,2013-09-09 18:27:00,
2013-09-09 13:33:00,94.6,65.8,29.71,SSW,196,10.0,14.0,39,0.00,,,0.00,773,Wunderground v.1.15,2013-09-09 18:33:00,
2013-09-09 13:39:00,94.0,64.5,29.71,SW,215,11.0,17.0,38,0.00,,,0.00,768,Wunderground v.1.15,2013-09-09 18:39:00,
2013-09-09 13:45:00,94.0,65.3,29.71,SW,223,13.0,17.0,39,0.00,,,0.00,766,Wunderground v.1.15,2013-09-09 18:45:00,
2013-09-09 13:50:00,94.1,65.4,29.71,WSW,238,13.0,13.0,39,0.00,,,0.00,761,Wunderground v.1.15,2013-09-09 18:50:00,
2013-09-09 13:55:00,94.5,65.0,29.71,SSW,198,11.0,13.0,38,0.00,,,0.00,756,Wunderground v.1.15,2013-09-09 18:55:00,
2013-09-09 14:01:00,94.3,64.8,29.71,SW,233,12.0,17.0,38,0.00,,,0.00,756,Wunderground v.1.15,2013-09-09 19:01:00,
2013-09-09 14:06:00,94.3,66.3,29.71,South,183,14.0,18.0,40,0.00,,,0.00,752,Wunderground v.1.15,2013-09-09 19:06:00,
2013-09-09 14:12:00,94.8,65.2,29.71,South,182,12.0,19.0,38,0.00,,,0.00,749,Wunderground v.1.15,2013-09-09 19:12:00,
2013-09-09 14:18:00,94.7,65.1,29.71,South,190,11.0,19.0,38,0.00,,,0.00,745,Wunderground v.1.15,2013-09-09 19:18:00,
2013-09-09 14:24:00,94.8,64.5,29.71,SW,234,12.0,17.0,37,0.00,,,0.00,740,Wunderground v.1.15,2013-09-09 19:24:00,
2013-09-09 14:30:00,94.8,66.0,29.71,South,181,13.0,13.0,39,0.00,,,0.00,731,Wunderground v.1.15,2013-09-09 19:30:00,
2013-09-09 14:35:00,94.9,65.3,29.71,SW,220,12.0,20.0,38,0.00,,,0.00,733,Wunderground v.1.15,2013-09-09 19:35:00,
2013-09-09 14:41:00,94.7,63.6,29.70,SSW,202,14.0,19.0,36,0.00,,,0.00,726,Wunderground v.1.15,2013-09-09 19:41:00,
2013-09-09 14:46:00,94.5,65.0,29.70,SSW,195,15.0,19.0,38,0.00,,,0.00,717,Wunderground v.1.15,2013-09-09 19:46:00,
2013-09-09 14:51:00,94.9,64.6,29.70,South,191,14.0,17.0,37,0.00,,,0.00,708,Wunderground v.1.15,2013-09-09 19:51:00,
2013-09-09 14:57:00,94.9,64.6,29.70,SSW,203,14.0,20.0,37,0.00,,,0.00,701,Wunderground v.1.15,2013-09-09 19:57:00,
2013-09-09 15:02:00,94.9,63.8,29.70,WSW,241,13.0,17.0,36,0.00,,,0.00,696,Wunderground v.1.15,2013-09-09 20:02:00,
2013-09-09 15:07:00,94.9,63.8,29.69,WSW,242,13.0,17.0,36,0.00,,,0.00,684,Wunderground v.1.15,2013-09-09 20:07:00,
2013-09-09 15:12:00,95.2,64.0,29.70,SSW,204,14.0,18.0,36,0.00,,,0.00,673,Wunderground v.1.15,2013-09-09 20:12:00,
2013-09-09 15:18:00,95.1,63.1,29.69,SSE,158,13.0,18.0,35,0.00,,,0.00,661,Wunderground v.1.15,2013-09-09 20:18:00,
2013-09-09 15:23:00,95.4,64.2,29.69,SSE,163,11.0,14.0,36,0.00,,,0.00,657,Wunderground v.1.15,2013-09-09 20:23:00,
2013-09-09 15:29:00,95.2,62.4,29.69,SSW,202,12.0,16.0,34,0.00,,,0.00,647,Wunderground v.1.15,2013-09-09 20:29:00,
2013-09-09 15:34:00,95.2,63.2,29.69,SW,228,14.0,22.0,35,0.00,,,0.00,636,Wunderground v.1.15,2013-09-09 20:34:00,
2013-09-09 15:40:00,95.0,63.1,29.69,WSW,238,13.0,13.0,35,0.00,,,0.00,626,Wunderground v.1.15,2013-09-09 20:40:00,
2013-09-09 15:46:00,95.3,64.1,29.69,SW,234,12.0,17.0,36,0.00,,,0.00,615,Wunderground v.1.15,2013-09-09 20:46:00,
2013-09-09 15:52:00,95.5,65.9,29.69,West,265,12.0,14.0,38,0.00,,,0.00,606,Wunderground v.1.15,2013-09-09 20:52:00,
2013-09-09 15:57:00,95.4,61.7,29.69,SW,234,13.0,23.0,33,0.00,,,0.00,594,Wunderground v.1.15,2013-09-09 20:57:00,
2013-09-09 16:02:00,95.0,62.2,29.69,WSW,240,14.0,14.0,34,0.00,,,0.00,582,Wunderground v.1.15,2013-09-09 21:02:00,
2013-09-09 16:07:00,95.1,62.3,29.69,SW,235,14.0,20.0,34,0.00,,,0.00,566,Wunderground v.1.15,2013-09-09 21:07:00,
2013-09-09 16:12:00,95.1,63.1,29.69,SW,235,14.0,18.0,35,0.00,,,0.00,559,Wunderground v.1.15,2013-09-09 21:12:00,
2013-09-09 16:18:00,95.2,61.6,29.69,SW,226,14.0,20.0,33,0.00,,,0.00,541,Wunderground v.1.15,2013-09-09 21:18:00,
2013-09-09 16:24:00,95.3,59.9,29.69,SSW,211,15.0,23.0,31,0.00,,,0.00,527,Wunderground v.1.15,2013-09-09 21:24:00,
2013-09-09 16:30:00,95.4,59.1,29.69,SSW,204,15.0,16.0,30,0.00,,,0.00,506,Wunderground v.1.15,2013-09-09 21:30:00,
2013-09-09 16:36:00,95.3,59.0,29.69,SSW,192,14.0,21.0,30,0.00,,,0.00,489,Wunderground v.1.15,2013-09-09 21:36:00,
2013-09-09 16:42:00,95.3,59.0,29.69,SSW,211,13.0,22.0,30,0.00,,,0.00,480,Wunderground v.1.15,2013-09-09 21:42:00,
2013-09-09 16:47:00,95.2,57.0,29.69,SSW,208,15.0,22.0,28,0.00,,,0.00,468,Wunderground v.1.15,2013-09-09 21:47:00,
2013-09-09 16:52:00,95.1,58.8,29.69,SSW,205,15.0,16.0,30,0.00,,,0.00,452,Wunderground v.1.15,2013-09-09 21:52:00,
2013-09-09 16:57:00,95.1,55.9,29.69,SSW,195,15.0,18.0,27,0.00,,,0.00,443,Wunderground v.1.15,2013-09-09 21:57:00,
2013-09-09 17:03:00,94.9,56.7,29.69,WSW,237,15.0,17.0,28,0.00,,,0.00,420,Wunderground v.1.15,2013-09-09 22:03:00,
2013-09-09 17:09:00,94.9,57.7,29.69,SSW,205,15.0,25.0,29,0.00,,,0.00,406,Wunderground v.1.15,2013-09-09 22:09:00,
2013-09-09 17:14:00,94.9,60.4,29.69,SSW,206,15.0,21.0,32,0.00,,,0.00,385,Wunderground v.1.15,2013-09-09 22:14:00,
2013-09-09 17:19:00,94.5,60.1,29.69,SSE,167,14.0,25.0,32,0.00,,,0.00,373,Wunderground v.1.15,2013-09-09 22:19:00,
2013-09-09 17:24:00,94.3,59.9,29.69,SSW,205,12.0,17.0,32,0.00,,,0.00,357,Wunderground v.1.15,2013-09-09 22:24:00,
2013-09-09 17:29:00,94.2,58.9,29.70,SW,225,12.0,20.0,31,0.00,,,0.00,343,Wunderground v.1.15,2013-09-09 22:29:00,
2013-09-09 17:34:00,93.9,60.4,29.70,South,187,12.0,12.0,33,0.00,,,0.00,330,Wunderground v.1.15,2013-09-09 22:34:00,
2013-09-09 17:39:00,93.8,59.5,29.70,SW,218,12.0,17.0,32,0.00,,,0.00,313,Wunderground v.1.15,2013-09-09 22:39:00,
2013-09-09 17:44:00,93.7,58.5,29.69,SSW,210,14.0,21.0,31,0.00,,,0.00,299,Wunderground v.1.15,2013-09-09 22:44:00,
2013-09-09 17:50:00,93.6,59.3,29.70,SSW,213,13.0,13.0,32,0.00,,,0.00,281,Wunderground v.1.15,2013-09-09 22:50:00,
2013-09-09 17:55:00,93.5,59.2,29.70,SW,236,12.0,14.0,32,0.00,,,0.00,265,Wunderground v.1.15,2013-09-09 22:55:00,
2013-09-09 18:01:00,93.3,59.9,29.70,South,185,11.0,11.0,33,0.00,,,0.00,248,Wunderground v.1.15,2013-09-09 23:01:00,
2013-09-09 18:06:00,92.9,59.6,29.70,SW,224,9.0,17.0,33,0.00,,,0.00,230,Wunderground v.1.15,2013-09-09 23:06:00,
2013-09-09 18:11:00,92.7,58.5,29.70,SW,215,10.0,18.0,32,0.00,,,0.00,213,Wunderground v.1.15,2013-09-09 23:11:00,
2013-09-09 18:17:00,92.3,59.0,29.70,SW,221,10.0,18.0,33,0.00,,,0.00,195,Wunderground v.1.15,2013-09-09 23:17:00,
2013-09-09 18:22:00,92.0,60.4,29.70,SSW,198,9.0,10.0,35,0.00,,,0.00,176,Wunderground v.1.15,2013-09-09 23:22:00,
2013-09-09 18:27:00,91.9,60.3,29.70,SSW,207,9.0,10.0,35,0.00,,,0.00,160,Wunderground v.1.15,2013-09-09 23:27:00,
2013-09-09 18:33:00,91.8,60.3,29.70,SSW,196,9.0,16.0,35,0.00,,,0.00,137,Wunderground v.1.15,2013-09-09 23:33:00,
2013-09-09 18:38:00,91.7,60.2,29.70,SSW,199,10.0,16.0,35,0.00,,,0.00,123,Wunderground v.1.15,2013-09-09 23:38:00,
2013-09-09 18:43:00,91.3,60.6,29.70,South,186,9.0,12.0,36,0.00,,,0.00,105,Wunderground v.1.15,2013-09-09 23:43:00,
2013-09-09 18:48:00,91.0,60.3,29.70,South,190,8.0,12.0,36,0.00,,,0.00,90,Wunderground v.1.15,2013-09-09 23:48:00,
2013-09-09 18:54:00,90.6,60.8,29.70,South,171,9.0,11.0,37,0.00,,,0.00,72,Wunderground v.1.15,2013-09-09 23:54:00,
2013-09-09 19:00:00,90.3,61.2,29.70,SSE,167,8.0,8.0,38,0.00,,,0.00,58,Wunderground v.1.15,2013-09-10 00:00:00,
2013-09-09 19:06:00,89.7,61.5,29.70,South,188,7.0,9.0,39,0.00,,,0.00,42,Wunderground v.1.15,2013-09-10 00:06:00,
2013-09-09 19:11:00,89.2,61.0,29.70,SSE,162,6.0,8.0,39,0.00,,,0.00,26,Wunderground v.1.15,2013-09-10 00:11:00,
2013-09-09 19:17:00,89.0,61.5,29.70,SSW,192,7.0,10.0,40,0.00,,,0.00,21,Wunderground v.1.15,2013-09-10 00:17:00,
2013-09-09 19:22:00,88.7,61.3,29.70,South,180,7.0,7.0,40,0.00,,,0.00,19,Wunderground v.1.15,2013-09-10 00:22:00,
2013-09-09 19:27:00,88.1,61.4,29.71,SSE,167,6.0,8.0,41,0.00,,,0.00,16,Wunderground v.1.15,2013-09-10 00:27:00,
2013-09-09 19:32:00,87.7,61.8,29.71,South,170,6.0,8.0,42,0.00,,,0.00,12,Wunderground v.1.15,2013-09-10 00:32:00,
2013-09-09 19:37:00,87.2,62.0,29.71,SSE,159,6.0,8.0,43,0.00,,,0.00,9,Wunderground v.1.15,2013-09-10 00:37:00,
2013-09-09 19:43:00,86.6,62.1,29.71,South,190,6.0,6.0,44,0.00,,,0.00,5,Wunderground v.1.15,2013-09-10 00:43:00,
2013-09-09 19:49:00,86.0,62.2,29.71,SSE,164,6.0,9.0,45,0.00,,,0.00,0,Wunderground v.1.15,2013-09-10 00:49:00,
2013-09-09 19:55:00,85.5,63.0,29.71,SSE,167,6.0,9.0,47,0.00,,,0.00,0,Wunderground v.1.15,2013-09-10 00:55:00,
2013-09-09 20:01:00,85.0,62.5,29.72,SSE,160,7.0,9.0,47,0.00,,,0.00,0,Wunderground v.1.15,2013-09-10 01:01:00,
2013-09-09 20:07:00,84.5,62.7,29.72,South,186,7.0,9.0,48,0.00,,,0.00,0,Wunderground v.1.15,2013-09-10 01:07:00,
2013-09-09 20:12:00,84.4,62.6,29.72,SSW,197,7.0,7.0,48,0.00,,,0.00,0,Wunderground v.1.15,2013-09-10 01:12:00,
2013-09-09 20:17:00,84.1,62.9,29.72,SSE,163,7.0,8.0,49,0.00,,,0.00,0,Wunderground v.1.15,2013-09-10 01:17:00,
2013-09-09 20:22:00,83.6,63.0,29.72,South,174,7.0,9.0,50,0.00,,,0.00,0,Wunderground v.1.15,2013-09-10 01:22:00,
2013-09-09 20:27:00,83.4,62.8,29.72,South,182,7.0,9.0,50,0.00,,,0.00,0,Wunderground v.1.15,2013-09-10 01:27:00,
2013-09-09 20:33:00,83.3,62.7,29.73,South,187,6.0,7.0,50,0.00,,,0.00,0,Wunderground v.1.15,2013-09-10 01:33:00,
2013-09-09 20:39:00,82.9,62.9,29.73,South,182,5.0,9.0,51,0.00,,,0.00,0,Wunderground v.1.15,2013-09-10 01:39:00,
2013-09-09 20:45:00,82.6,62.6,29.73,South,175,5.0,6.0,51,0.00,,,0.00,0,Wunderground v.1.15,2013-09-10 01:45:00,
2013-09-09 20:51:00,82.4,63.0,29.73,SSW,192,6.0,7.0,52,0.00,,,0.00,0,Wunderground v.1.15,2013-09-10 01:51:00,
2013-09-09 20:56:00,82.0,62.6,29.73,South,173,6.0,8.0,52,0.00,,,0.00,0,Wunderground v.1.15,2013-09-10 01:56:00,
2013-09-09 21:01:00,81.6,62.8,29.74,SSW,192,6.0,6.0,53,0.00,,,0.00,0,Wunderground v.1.15,2013-09-10 02:01:00,
2013-09-09 21:07:00,81.4,63.2,29.74,SSW,192,5.0,9.0,54,0.00,,,0.00,0,Wunderground v.1.15,2013-09-10 02:07:00,
2013-09-09 21:13:00,81.2,63.0,29.74,South,190,6.0,11.0,54,0.00,,,0.00,0,Wunderground v.1.15,2013-09-10 02:13:00,
2013-09-09 21:19:00,81.0,62.8,29.74,South,188,6.0,11.0,54,0.00,,,0.00,0,Wunderground v.1.15,2013-09-10 02:19:00,
2013-09-09 21:25:00,81.0,63.3,29.74,South,182,6.0,8.0,55,0.00,,,0.00,0,Wunderground v.1.15,2013-09-10 02:25:00,
2013-09-09 21:30:00,80.8,63.1,29.74,South,174,6.0,6.0,55,0.00,,,0.00,0,Wunderground v.1.15,2013-09-10 02:30:00,
2013-09-09 21:35:00,80.7,63.5,29.74,South,186,6.0,6.0,56,0.00,,,0.00,0,Wunderground v.1.15,2013-09-10 02:35:00,
2013-09-09 21:41:00,80.5,63.4,29.74,South,188,7.0,7.0,56,0.00,,,0.00,0,Wunderground v.1.15,2013-09-10 02:41:00,
2013-09-09 21:47:00,80.3,63.7,29.75,South,188,6.0,8.0,57,0.00,,,0.00,0,Wunderground v.1.15,2013-09-10 02:47:00,
2013-09-09 21:52:00,80.0,63.4,29.75,SSW,197,6.0,6.0,57,0.00,,,0.00,0,Wunderground v.1.15,2013-09-10 02:52:00,
2013-09-09 21:57:00,79.8,63.2,29.75,South,180,6.0,9.0,57,0.00,,,0.00,0,Wunderground v.1.15,2013-09-10 02:57:00,
2013-09-09 22:02:00,79.6,63.5,29.75,South,188,6.0,6.0,58,0.00,,,0.00,0,Wunderground v.1.15,2013-09-10 03:02:00,
2013-09-09 22:08:00,79.5,63.4,29.75,SSE,158,7.0,9.0,58,0.00,,,0.00,0,Wunderground v.1.15,2013-09-10 03:08:00,
2013-09-09 22:14:00,79.4,63.3,29.75,South,177,7.0,8.0,58,0.00,,,0.00,0,Wunderground v.1.15,2013-09-10 03:14:00,
2013-09-09 22:19:00,79.4,63.3,29.75,SSE,153,6.0,9.0,58,0.00,,,0.00,0,Wunderground v.1.15,2013-09-10 03:19:00,
2013-09-09 22:25:00,79.4,63.3,29.75,South,179,7.0,11.0,58,0.00,,,0.00,0,Wunderground v.1.15,2013-09-10 03:25:00,
2013-09-09 22:30:00,79.4,63.3,29.75,SSE,167,7.0,7.0,58,0.00,,,0.00,0,Wunderground v.1.15,2013-09-10 03:30:00,
2013-09-09 22:35:00,79.3,63.2,29.75,SSE,166,7.0,13.0,58,0.00,,,0.00,0,Wunderground v.1.15,2013-09-10 03:35:00,
2013-09-09 22:41:00,79.4,63.3,29.75,South,169,8.0,10.0,58,0.00,,,0.00,0,Wunderground v.1.15,2013-09-10 03:41:00,
2013-09-09 22:47:00,79.2,63.1,29.75,South,169,8.0,11.0,58,0.00,,,0.00,0,Wunderground v.1.15,2013-09-10 03:47:00,
2013-09-09 22:52:00,79.2,63.1,29.75,SSE,154,8.0,8.0,58,0.00,,,0.00,0,Wunderground v.1.15,2013-09-10 03:52:00,
2013-09-09 22:57:00,79.0,63.0,29.75,South,175,8.0,10.0,58,0.00,,,0.00,0,Wunderground v.1.15,2013-09-10 03:57:00,
2013-09-09 23:01:00,78.8,62.8,29.75,South,186,8.0,8.0,58,0.00,,,0.00,0,Wunderground v.1.15,2013-09-10 04:01:00,
2013-09-09 23:02:00,78.8,62.8,29.75,South,175,8.0,8.0,58,0.00,,,0.00,0,Wunderground v.1.15,2013-09-10 04:02:00,
2013-09-09 23:03:00,78.8,62.8,29.75,South,181,8.0,8.0,58,0.00,,,0.00,0,Wunderground v.1.15,2013-09-10 04:03:00,
2013-09-09 23:08:00,78.7,62.7,29.75,SSW,195,8.0,10.0,58,0.00,,,0.00,0,Wunderground v.1.15,2013-09-10 04:08:00,
2013-09-09 23:09:00,78.7,62.7,29.75,SW,220,8.0,10.0,58,0.00,,,0.00,0,Wunderground v.1.15,2013-09-10 04:09:00,
2013-09-09 23:13:00,78.8,62.8,29.75,South,171,8.0,14.0,58,0.00,,,0.00,0,Wunderground v.1.15,2013-09-10 04:13:00,
2013-09-09 23:18:00,78.6,62.6,29.75,SSE,157,8.0,14.0,58,0.00,,,0.00,0,Wunderground v.1.15,2013-09-10 04:18:00,
2013-09-09 23:23:00,78.5,62.5,29.76,SSW,209,8.0,9.0,58,0.00,,,0.00,0,Wunderground v.1.15,2013-09-10 04:23:00,
2013-09-09 23:28:00,78.5,62.5,29.75,South,172,8.0,9.0,58,0.00,,,0.00,0,Wunderground v.1.15,2013-09-10 04:28:00,
2013-09-09 23:34:00,78.3,62.3,29.76,South,184,8.0,8.0,58,0.00,,,0.00,0,Wunderground v.1.15,2013-09-10 04:34:00,
2013-09-09 23:40:00,78.0,62.5,29.76,SSE,167,7.0,9.0,59,0.00,,,0.00,0,Wunderground v.1.15,2013-09-10 04:40:00,
2013-09-09 23:46:00,77.8,62.3,29.76,SSE,161,8.0,10.0,59,0.00,,,0.00,0,Wunderground v.1.15,2013-09-10 04:46:00,
2013-09-09 23:52:00,77.7,62.2,29.76,South,185,8.0,9.0,59,0.00,,,0.00,0,Wunderground v.1.15,2013-09-10 04:52:00,
2013-09-09 23:57:00,77.7,61.7,29.76,SSW,196,8.0,11.0,58,0.00,,,0.00,0,Wunderground v.1.15,2013-09-10 04:57:00,